Showing default

OPS 2366 (TRANSIT 14), 2401

Orbit data source: Space-Track

OPS 2366 (TRANSIT 14), 2401 is a payload satellite owned by USN NAVAIR (US) in LEO that was launched on Thu, 18 Aug 1966 UTC via an SCOUT A launch vehicle from the Air Force Western Test Range (AFWTR). Payloads include a variety of satellites, spacecraft, and rockets equipped with specific instruments for various scientific and technological missions. These include communications satellites like Starlink; space stations such as the ISS; scientific satellites like the Hubble; Earth observation satellites from companies like Planet Labs, Umbra, and HawkEye 360; GPS; miniature CubeSats for education and research; and military/defense satellites.

Loading next visibility...
OPS 2366 (TRANSIT 14) details
Identifier
2401, 1966-076A
Orbit
LEO
Last TLE update18 hours ago
Origin
Flag of USUSN NAVAIR (US)
ManufacturerAPL
MissionDefense Navigation
Bus & MotorTRANSIT 5, Unknown motor
Mass~49 kg wet, ~49 kg dry
Launch date (UTC)
1966-08-18 (58 years ago)
Launch vehicle
SCOUT A
Launch site
Air Force Western Test Range (AFWTR)
Object type
Payload
Rocket body
Debris
Shape & HBROct Cyl + 4 Pan + 1 Rod, Unknown HBR
Radar Cross Section7.565 m², Large (>1 m²)

Expand to show TLE details & history

TLE from 18 hours ago
0 OPS 2366 (TRANSIT 14)
1 02401U 66076A   25018.26134295  .00000235  00000-0  32925-3 0  9994
2 02401  88.8613 126.0145 0032076   2.9571  25.6168 13.53798801881420
Epoch: 2025-01-18T06:16Z
Definitive object data (Epoch: 2025-01-18T06:16:20.03Z)
Latitude28.77°
Longitude-85.36003°
Altitude1,040.435 km
Speed7.345 km/s
True Right ascension08h 26m 32s
True Declination28° 37' 50"
Sunlit
Object was in full shadow at TLE epoch
Visualization TLE readout
Latitude14.98874°
Longitude93.6259°
Altitude1,083.527 km
Speed7.3 km/s
Apparent Right ascension17h 51m 42s
Apparent Declination-15° 20' 43"
Sunlit
Object is in daylight
Visualization observer readout
Local Sidereal Time01:35:08
Azimuth274.41° WNW
Elevation-29.499°
Doppler factor1
Orbital elements
Apogee altitude1,079.206 km
Perigee altitude1,031.519 km
Semi-major axis7,433.499 km
Eccentricity0.0032076
Inclination88.8613°
RAAN126.0145°
Arg. of periapsis2.9571°
True anomaly25.77629°
Mean anomaly25.6168°
Eccentric anomaly25.69649°
Mean motion3.38652 °/min
BSTAR0.00032925
Orbital period106.3 mins
Loading maneuver chart data...
Loading historical data...
Loading historical data...
Loading historical data...
Loading historical data...
Loading historical data...
Loading historical data...
Loading historical data...

OPS 2366 (TRANSIT 14) Visibility forecast

Observer location: undefined°, undefined

Span
Click to sort rows by Start time (UTC) header in descending order
Start Az.
Max El. time (UTC)
Max El. Az.
Max El.
End time (UTC)
End Az.
12 mins2025-01-19 07:03:56.378Z162.066° S2025-01-19 07:09:56.378Z75.202° E41.191°2025-01-19 07:15:56.378Z6.754° NNE
7 mins2025-01-19 08:53:56.378Z252.929° W2025-01-19 08:56:56.378Z287.324° WNW18.885°2025-01-19 09:00:56.378Z326.67° NNW
9 mins2025-01-19 18:13:56.378Z35.151° NE2025-01-19 18:17:56.378Z86.286° E26.183°2025-01-19 18:22:56.378Z138.258° SSE
11 mins2025-01-19 19:58:56.378Z343.51° N2025-01-19 20:03:56.378Z281.452° WNW34.721°2025-01-19 20:09:56.378Z210.503° SW
|